Location: Possagno
(45.8500°N, 11.8667°E)
Time: 08:29:02
(UTC+00:00)

STARLINK-2733 - Pass Details

Date: 30 July 2021
Orbit: 546 x 548 km, 53.1° (Epoch: 22 September)

Event Time Altitude Azimuth Distance (km) Brightness Sun altitude
Rises 20:03:44 0° 296° (WNW) 2,718 8.8 -12.1°
Reaches altitude 10° 20:06:09 10° 286° (WNW) 1,821 7.3 -12.4°
Maximum altitude 20:09:47 30° 224° (SW) 991 4.9 -12.9°
Enters shadow 20:12:25 16° 171° (S) 1,484 5.3 -13.2°
